Time,TemperatureF,DewpointF,PressureIn,WindDirection,WindDirectionDegrees,WindSpeedMPH,WindSpeedGustMPH,Humidity,HourlyPrecipIn,Conditions,Clouds,dailyrainin,SolarRadiationWatts/m^2,SoftwareType,DateUTC
2013-05-23 00:01:00,66.3,62.6,29.71,SW,217,3.7,7.0,88,0.00,RA,OVC,0.00,0.0,WeatherDisplay:10.37,2013-05-23 04:01:00,
2013-05-23 00:06:00,66.5,62.5,29.71,SW,215,2.1,5.0,87,0.00,RA,OVC,0.00,0.0,WeatherDisplay:10.37,2013-05-23 04:06:00,
2013-05-23 00:11:00,66.6,62.6,29.72,SSW,213,0.8,6.9,87,0.00,BKN,OVC,0.00,0.0,WeatherDisplay:10.37,2013-05-23 04:11:00,
2013-05-23 00:16:00,66.8,62.8,29.72,SW,215,0.6,5.8,87,0.00,BKN,OVC,0.00,0.0,WeatherDisplay:10.37,2013-05-23 04:16:00,
2013-05-23 00:21:00,66.8,62.5,29.72,SW,214,1.6,8.1,86,0.00,OVC,,0.00,0.0,WeatherDisplay:10.37,2013-05-23 04:21:00,
2013-05-23 00:26:00,66.9,62.6,29.71,SSW,213,2.3,5.0,86,0.00,OVC,,0.00,0.0,WeatherDisplay:10.37,2013-05-23 04:26:00,
2013-05-23 00:31:00,67.0,62.3,29.71,SW,219,4.6,8.1,85,0.00,OVC,,0.00,0.0,WeatherDisplay:10.37,2013-05-23 04:31:00,
2013-05-23 00:36:00,67.0,62.0,29.71,SW,216,2.7,7.0,84,0.00,OVC,,0.00,0.0,WeatherDisplay:10.37,2013-05-23 04:36:00,
2013-05-23 00:41:00,67.0,62.0,29.71,SW,219,1.9,4.0,84,0.00,OVC,,0.00,0.0,WeatherDisplay:10.37,2013-05-23 04:41:00,
2013-05-23 00:46:00,66.9,61.6,29.71,SW,219,3.4,7.0,83,0.00,OVC,,0.00,0.0,WeatherDisplay:10.37,2013-05-23 04:46:00,
2013-05-23 00:51:00,66.9,61.6,29.71,SW,217,3.0,5.0,83,0.00,OVC,,0.00,0.0,WeatherDisplay:10.37,2013-05-23 04:51:00,
2013-05-23 00:56:00,67.0,61.7,29.71,SW,215,1.2,5.8,83,0.00,OVC,,0.00,0.0,WeatherDisplay:10.37,2013-05-23 04:56:00,
2013-05-23 01:01:00,67.1,61.8,29.71,SW,215,0.6,3.5,83,0.00,OVC,,0.00,0.0,WeatherDisplay:10.37,2013-05-23 05:01:00,
2013-05-23 01:06:00,67.2,61.9,29.71,SW,215,0.1,3.5,83,0.00,OVC,,0.00,0.0,WeatherDisplay:10.37,2013-05-23 05:06:00,
2013-05-23 01:11:00,67.2,61.9,29.71,SW,215,0.0,2.3,83,0.00,OVC,,0.00,0.0,WeatherDisplay:10.37,2013-05-23 05:11:00,
2013-05-23 01:16:00,67.2,61.9,29.71,SW,215,0.0,0.0,83,0.00,OVC,,0.00,0.0,WeatherDisplay:10.37,2013-05-23 05:16:00,
2013-05-23 01:21:00,67.2,61.9,29.71,SW,215,0.0,1.2,83,0.00,OVC,,0.00,0.0,WeatherDisplay:10.37,2013-05-23 05:21:00,
2013-05-23 01:26:00,67.2,62.2,29.71,SW,215,0.1,1.2,84,0.00,OVC,,0.00,0.0,WeatherDisplay:10.37,2013-05-23 05:26:00,
2013-05-23 01:31:00,67.2,62.2,29.71,SW,215,0.0,1.2,84,0.00,OVC,,0.00,0.0,WeatherDisplay:10.37,2013-05-23 05:31:00,
2013-05-23 01:36:00,67.1,62.1,29.71,SW,215,0.1,3.5,84,0.00,OVC,,0.00,0.0,WeatherDisplay:10.37,2013-05-23 05:36:00,
2013-05-23 01:41:00,67.2,62.2,29.71,SW,215,0.7,3.5,84,0.00,OVC,,0.00,0.0,WeatherDisplay:10.37,2013-05-23 05:41:00,
2013-05-23 01:46:00,67.2,62.5,29.71,SW,215,0.6,3.5,85,0.00,OVC,,0.00,0.0,WeatherDisplay:10.37,2013-05-23 05:46:00,
2013-05-23 01:51:00,67.3,62.6,29.71,SW,215,1.2,3.5,85,0.00,OVC,,0.00,0.0,WeatherDisplay:10.37,2013-05-23 05:51:00,
2013-05-23 01:56:00,67.5,63.2,29.72,SW,224,4.0,6.0,86,0.00,OVC,,0.01,0.0,WeatherDisplay:10.37,2013-05-23 05:56:00,
2013-05-23 02:01:00,67.6,63.3,29.72,SW,216,2.3,5.0,86,0.07,RA,OVC,0.07,0.0,WeatherDisplay:10.37,2013-05-23 06:01:00,
2013-05-23 02:06:00,67.6,63.6,29.72,SW,223,2.5,5.0,87,0.08,RA,OVC,0.08,0.0,WeatherDisplay:10.37,2013-05-23 06:06:00,
2013-05-23 02:11:00,67.3,63.0,29.72,West,271,6.9,14.0,86,0.21,RA,OVC,0.21,0.0,WeatherDisplay:10.37,2013-05-23 06:11:00,
2013-05-23 02:16:00,66.8,62.8,29.72,West,261,2.1,6.9,87,0.23,RA,OVC,0.23,0.0,WeatherDisplay:10.37,2013-05-23 06:16:00,
2013-05-23 02:21:00,66.5,62.5,29.72,West,273,1.6,4.0,87,0.23,RA,OVC,0.23,0.0,WeatherDisplay:10.37,2013-05-23 06:21:00,
2013-05-23 02:26:00,66.2,62.5,29.72,WSW,257,6.6,12.0,88,0.32,RA,OVC,0.33,0.0,WeatherDisplay:10.37,2013-05-23 06:26:00,
2013-05-23 02:31:00,65.9,62.2,29.71,SW,233,3.6,9.0,88,0.36, +RA,OVC,0.36,0.0,WeatherDisplay:10.37,2013-05-23 06:31:00,
2013-05-23 02:36:00,65.7,62.0,29.71,SW,225,1.4,3.5,88,0.36, +RA,OVC,0.36,0.0,WeatherDisplay:10.37,2013-05-23 06:36:00,
2013-05-23 02:41:00,65.4,61.8,29.71,SW,225,0.7,3.5,88,0.36, +RA,OVC,0.36,0.0,WeatherDisplay:10.37,2013-05-23 06:41:00,
2013-05-23 02:46:00,65.3,61.7,29.71,SW,225,0.4,3.5,88,0.36, +RA,OVC,0.37,0.0,WeatherDisplay:10.37,2013-05-23 06:46:00,
2013-05-23 02:51:00,65.2,61.6,29.71,SW,225,1.7,4.0,88,0.37, +RA,OVC,0.37,0.0,WeatherDisplay:10.37,2013-05-23 06:51:00,
2013-05-23 02:56:00,65.1,61.8,29.71,SW,225,0.0,3.5,89,0.36, +RA,OVC,0.37,0.0,WeatherDisplay:10.37,2013-05-23 06:56:00,
2013-05-23 03:01:00,65.0,61.7,29.70,SW,225,1.1,3.5,89,0.30, +RA,OVC,0.37,0.0,WeatherDisplay:10.37,2013-05-23 07:01:00,
2013-05-23 03:06:00,64.9,61.6,29.70,SW,225,0.0,0.0,89,0.29, +RA,OVC,0.37,0.0,WeatherDisplay:10.37,2013-05-23 07:06:00,
2013-05-23 03:11:00,64.8,61.5,29.70,SW,225,0.1,2.3,89,0.16, +RA,OVC,0.37,0.0,WeatherDisplay:10.37,2013-05-23 07:11:00,
2013-05-23 03:16:00,64.8,61.5,29.70,SW,225,0.0,1.2,89,0.14, +RA,OVC,0.37,0.0,WeatherDisplay:10.37,2013-05-23 07:16:00,
2013-05-23 03:21:00,64.7,61.4,29.70,SW,225,0.0,0.0,89,0.14,OVC,,0.37,0.0,WeatherDisplay:10.37,2013-05-23 07:21:00,
2013-05-23 03:26:00,64.7,61.4,29.70,SW,225,0.0,0.0,89,0.05,OVC,,0.37,0.0,WeatherDisplay:10.37,2013-05-23 07:26:00,
2013-05-23 03:31:00,64.7,61.7,29.70,SW,225,0.0,0.0,90,0.01,OVC,,0.37,0.0,WeatherDisplay:10.37,2013-05-23 07:31:00,
2013-05-23 03:36:00,64.6,61.6,29.70,SW,225,0.0,0.0,90,0.01,OVC,,0.37,0.0,WeatherDisplay:10.37,2013-05-23 07:36:00,
2013-05-23 03:41:00,64.6,61.6,29.71,SW,225,0.0,0.0,90,0.01,OVC,,0.37,0.0,WeatherDisplay:10.37,2013-05-23 07:41:00,
2013-05-23 03:46:00,64.5,61.5,29.70,SW,225,0.0,0.0,90,0.00,OVC,,0.37,0.0,WeatherDisplay:10.37,2013-05-23 07:46:00,
2013-05-23 03:52:00,64.5,61.5,29.70,SW,225,0.2,1.2,90,0.00,OVC,,0.37,0.0,WeatherDisplay:10.37,2013-05-23 07:52:00,
2013-05-23 03:57:00,64.5,61.5,29.70,SW,225,0.0,0.0,90,0.00,OVC,,0.37,0.0,WeatherDisplay:10.37,2013-05-23 07:57:00,
2013-05-23 04:02:00,64.5,61.5,29.69,SW,225,1.2,3.5,90,0.00,OVC,,0.37,0.0,WeatherDisplay:10.37,2013-05-23 08:02:00,
2013-05-23 04:07:00,64.6,61.9,29.69,SW,225,0.8,4.0,91,0.00,OVC,,0.37,0.0,WeatherDisplay:10.37,2013-05-23 08:07:00,
2013-05-23 04:12:00,64.7,62.0,29.70,SW,223,2.8,5.8,91,0.00,OVC,,0.37,0.0,WeatherDisplay:10.37,2013-05-23 08:12:00,
2013-05-23 04:17:00,64.7,62.0,29.70,SSW,201,4.0,8.1,91,0.00,OVC,,0.37,0.0,WeatherDisplay:10.37,2013-05-23 08:17:00,
2013-05-23 04:22:00,64.9,62.2,29.70,SSW,196,4.5,7.0,91,0.00,-RA,OVC,0.37,0.0,WeatherDisplay:10.37,2013-05-23 08:22:00,
2013-05-23 04:27:00,65.0,62.3,29.70,SSW,195,1.4,4.6,91,0.00,-RA,OVC,0.37,0.0,WeatherDisplay:10.37,2013-05-23 08:27:00,
2013-05-23 04:32:00,65.0,62.3,29.70,South,190,3.3,8.1,91,0.00,-RA,OVC,0.37,0.0,WeatherDisplay:10.37,2013-05-23 08:32:00,
2013-05-23 04:37:00,65.1,62.4,29.70,South,176,2.8,8.1,91,0.00,-RA,OVC,0.37,0.0,WeatherDisplay:10.37,2013-05-23 08:37:00,
2013-05-23 04:42:00,65.1,62.4,29.70,South,180,4.7,11.5,91,0.00,-RA,OVC,0.37,0.0,WeatherDisplay:10.37,2013-05-23 08:42:00,
2013-05-23 04:47:00,65.2,62.5,29.69,South,179,2.3,6.9,91,0.00,-RA,OVC,0.37,0.0,WeatherDisplay:10.37,2013-05-23 08:47:00,
2013-05-23 04:52:00,65.2,62.5,29.69,South,179,2.4,6.0,91,0.00,-RA,OVC,0.37,0.0,WeatherDisplay:10.37,2013-05-23 08:52:00,
2013-05-23 04:57:00,65.2,62.5,29.69,South,185,3.6,7.0,91,0.00,-RA,OVC,0.37,0.0,WeatherDisplay:10.37,2013-05-23 08:57:00,
2013-05-23 05:02:00,65.2,62.5,29.69,SSW,194,2.1,6.9,91,0.00,-RA,OVC,0.37,0.0,WeatherDisplay:10.37,2013-05-23 09:02:00,
2013-05-23 05:07:00,65.2,62.2,29.69,SSW,203,2.6,8.1,90,0.00,-RA,OVC,0.37,0.0,WeatherDisplay:10.37,2013-05-23 09:07:00,
2013-05-23 05:12:00,65.2,62.2,29.69,SSW,205,4.1,9.0,90,0.00,-RA,OVC,0.37,0.0,WeatherDisplay:10.37,2013-05-23 09:12:00,
2013-05-23 05:17:00,65.2,62.2,29.69,SSW,202,4.0,7.0,90,0.00,-RA,OVC,0.37,0.0,WeatherDisplay:10.37,2013-05-23 09:17:00,
2013-05-23 05:22:00,65.3,62.3,29.69,SW,217,2.5,9.0,90,0.00,OVC,,0.37,0.0,WeatherDisplay:10.37,2013-05-23 09:22:00,
2013-05-23 05:27:00,65.3,62.3,29.69,SSW,213,2.8,7.0,90,0.00,OVC,,0.37,0.0,WeatherDisplay:10.37,2013-05-23 09:27:00,
2013-05-23 05:32:00,65.4,62.4,29.69,SW,215,5.4,11.0,90,0.00,OVC,,0.37,0.0,WeatherDisplay:10.37,2013-05-23 09:32:00,
2013-05-23 05:37:00,65.4,62.4,29.69,SW,221,4.7,9.0,90,0.00,OVC,,0.37,0.0,WeatherDisplay:10.37,2013-05-23 09:37:00,
2013-05-23 05:42:00,65.6,62.3,29.69,SSW,194,5.6,10.0,89,0.00,OVC,,0.37,0.0,WeatherDisplay:10.37,2013-05-23 09:42:00,
2013-05-23 05:47:00,65.7,62.4,29.69,SW,227,6.0,13.8,89,0.00,OVC,,0.37,0.0,WeatherDisplay:10.37,2013-05-23 09:47:00,
2013-05-23 05:52:00,65.8,62.5,29.70,SW,219,3.7,6.9,89,0.00,OVC,,0.37,0.0,WeatherDisplay:10.37,2013-05-23 09:52:00,
2013-05-23 05:57:00,65.8,62.5,29.69,SSW,212,3.0,9.2,89,0.00,OVC,,0.37,5.0,WeatherDisplay:10.37,2013-05-23 09:57:00,
2013-05-23 06:02:00,65.8,62.5,29.69,SW,217,3.5,9.2,89,0.00,OVC,,0.37,11.0,WeatherDisplay:10.37,2013-05-23 10:02:00,
2013-05-23 06:07:00,65.9,62.6,29.70,SW,217,3.8,11.5,89,0.00,OVC,,0.37,0.0,WeatherDisplay:10.37,2013-05-23 10:07:00,
2013-05-23 06:12:00,65.9,62.2,29.69,SW,221,4.8,11.5,88,0.00,OVC,,0.37,16.0,WeatherDisplay:10.37,2013-05-23 10:12:00,
2013-05-23 06:17:00,65.9,62.2,29.69,SSW,211,5.3,9.0,88,0.00,OVC,,0.37,28.0,WeatherDisplay:10.37,2013-05-23 10:17:00,
2013-05-23 06:22:00,66.0,62.3,29.70,SW,217,3.7,10.4,88,0.00,OVC,,0.37,33.0,WeatherDisplay:10.37,2013-05-23 10:22:00,
2013-05-23 06:27:00,66.0,62.3,29.70,SSW,209,0.8,6.9,88,0.00,OVC,,0.37,39.0,WeatherDisplay:10.37,2013-05-23 10:27:00,
2013-05-23 06:32:00,66.0,62.3,29.70,SW,219,5.4,11.5,88,0.00,OVC,,0.37,35.0,WeatherDisplay:10.37,2013-05-23 10:32:00,
2013-05-23 06:37:00,66.1,62.4,29.70,SW,214,3.2,10.4,88,0.00,OVC,,0.37,30.0,WeatherDisplay:10.37,2013-05-23 10:37:00,
2013-05-23 06:42:00,66.1,62.1,29.70,SSW,209,6.1,10.4,87,0.00,OVC,,0.37,33.0,WeatherDisplay:10.37,2013-05-23 10:42:00,
2013-05-23 06:47:00,66.2,62.2,29.70,SW,227,2.4,10.4,87,0.00,OVC,,0.37,44.0,WeatherDisplay:10.37,2013-05-23 10:47:00,
2013-05-23 06:52:00,66.3,62.3,29.71,WSW,243,5.3,12.7,87,0.00,OVC,,0.37,18.0,WeatherDisplay:10.37,2013-05-23 10:52:00,
2013-05-23 06:57:00,66.3,62.3,29.71,West,268,7.7,12.7,87,0.00,OVC,,0.37,0.0,WeatherDisplay:10.37,2013-05-23 10:57:00,
2013-05-23 07:02:00,66.1,61.8,29.72,WSW,247,6.0,15.0,86,0.00,OVC,,0.37,5.0,WeatherDisplay:10.37,2013-05-23 11:02:00,
2013-05-23 07:07:00,65.7,61.7,29.72,WSW,252,5.0,11.5,87,0.01,RA,OVC,0.38,33.0,WeatherDisplay:10.37,2013-05-23 11:07:00,
2013-05-23 07:12:00,65.3,61.3,29.72,WSW,250,5.9,11.5,87,0.02,RA,OVC,0.39,23.0,WeatherDisplay:10.37,2013-05-23 11:12:00,
2013-05-23 07:17:00,65.1,61.1,29.72,WSW,258,1.5,6.9,87,0.02,RA,OVC,0.39,32.0,WeatherDisplay:10.37,2013-05-23 11:17:00,
2013-05-23 07:22:00,64.8,60.8,29.73,WSW,257,0.8,6.9,87,0.02,OVC,,0.39,123.0,WeatherDisplay:10.37,2013-05-23 11:22:00,
2013-05-23 07:27:00,64.7,61.1,29.73,WSW,242,6.7,11.0,88,0.02,OVC,,0.39,47.0,WeatherDisplay:10.37,2013-05-23 11:27:00,
2013-05-23 07:32:00,64.5,60.9,29.73,West,263,4.9,11.5,88,0.02,OVC,,0.39,35.0,WeatherDisplay:10.37,2013-05-23 11:32:00,
2013-05-23 07:37:00,64.4,60.8,29.73,West,262,6.8,10.0,88,0.02,OVC,,0.39,53.0,WeatherDisplay:10.37,2013-05-23 11:37:00,
2013-05-23 07:42:00,64.3,60.7,29.73,WSW,252,6.6,11.5,88,0.02,-RA,OVC,0.39,74.0,WeatherDisplay:10.37,2013-05-23 11:42:00,
2013-05-23 07:47:00,64.2,60.6,29.73,WSW,238,3.5,10.0,88,0.02,-RA,OVC,0.39,40.0,WeatherDisplay:10.37,2013-05-23 11:47:00,
2013-05-23 07:52:00,64.1,60.2,29.73,WSW,255,3.5,15.0,87,0.02,-RA,OVC,0.39,47.0,WeatherDisplay:10.37,2013-05-23 11:52:00,
2013-05-23 07:57:00,63.9,60.0,29.74,WSW,246,6.2,12.7,87,0.02,-RA,OVC,0.39,23.0,WeatherDisplay:10.37,2013-05-23 11:57:00,
2013-05-23 08:02:00,63.8,59.9,29.73,WSW,250,6.0,11.0,87,0.02,-RA,OVC,0.39,39.0,WeatherDisplay:10.37,2013-05-23 12:02:00,
2013-05-23 08:07:00,63.8,59.9,29.74,West,263,4.2,8.0,87,0.01,-RA,OVC,0.39,81.0,WeatherDisplay:10.37,2013-05-23 12:07:00,
2013-05-23 08:12:00,63.8,59.5,29.74,WSW,252,7.3,13.0,86,0.00,-RA,OVC,0.39,76.0,WeatherDisplay:10.37,2013-05-23 12:12:00,
2013-05-23 08:17:00,63.8,59.9,29.74,WSW,254,2.0,9.2,87,0.00,-RA,OVC,0.39,77.0,WeatherDisplay:10.37,2013-05-23 12:17:00,
2013-05-23 08:22:00,63.8,59.9,29.74,WSW,253,2.7,7.0,87,0.00,-RA,OVC,0.39,65.0,WeatherDisplay:10.37,2013-05-23 12:22:00,
2013-05-23 08:27:00,63.8,59.9,29.74,WSW,256,1.4,6.9,87,0.00,-RA,OVC,0.39,62.0,WeatherDisplay:10.37,2013-05-23 12:27:00,
2013-05-23 08:32:00,63.8,59.9,29.74,WSW,256,1.5,3.5,87,0.00,BKN,OVC,0.39,62.0,WeatherDisplay:10.37,2013-05-23 12:32:00,
2013-05-23 08:37:00,63.8,59.9,29.74,WSW,256,2.1,4.6,87,0.00,BKN,OVC,0.39,51.0,WeatherDisplay:10.37,2013-05-23 12:37:00,
2013-05-23 08:42:00,63.9,60.3,29.74,WSW,256,0.2,3.5,88,0.00,BKN,OVC,0.39,51.0,WeatherDisplay:10.37,2013-05-23 12:42:00,
2013-05-23 08:47:00,64.0,60.4,29.75,WSW,256,3.1,7.0,88,0.00,BKN,OVC,0.39,51.0,WeatherDisplay:10.37,2013-05-23 12:47:00,
2013-05-23 08:52:00,64.1,60.5,29.75,WSW,254,4.3,10.4,88,0.00,BKN,OVC,0.39,95.0,WeatherDisplay:10.37,2013-05-23 12:52:00,
2013-05-23 08:57:00,64.2,60.6,29.75,West,273,4.1,13.8,88,0.00,BKN,OVC,0.39,151.0,WeatherDisplay:10.37,2013-05-23 12:57:00,
2013-05-23 09:02:00,64.4,60.8,29.75,West,266,5.1,12.7,88,0.00,BKN,OVC,0.39,301.0,WeatherDisplay:10.37,2013-05-23 13:02:00,
2013-05-23 09:07:00,64.8,61.5,29.75,WSW,257,7.6,13.8,89,0.00,BKN,OVC,0.39,306.0,WeatherDisplay:10.37,2013-05-23 13:07:00,
2013-05-23 09:12:00,65.1,61.1,29.75,WSW,250,4.2,11.5,87,0.00,BKN,OVC,0.39,230.0,WeatherDisplay:10.37,2013-05-23 13:12:00,
2013-05-23 09:17:00,65.4,61.1,29.75,West,265,7.0,12.7,86,0.00,BKN,OVC,0.39,348.0,WeatherDisplay:10.37,2013-05-23 13:17:00,
2013-05-23 09:22:00,65.7,61.1,29.75,WSW,242,7.1,12.0,85,0.00,BKN,OVC,0.39,462.0,WeatherDisplay:10.37,2013-05-23 13:22:00,
2013-05-23 09:27:00,66.1,61.5,29.75,SW,236,5.8,13.8,85,0.00,BKN,OVC,0.39,455.0,WeatherDisplay:10.37,2013-05-23 13:27:00,
2013-05-23 09:32:00,66.5,61.5,29.75,WSW,257,7.4,17.3,84,0.00,BKN,OVC,0.39,327.0,WeatherDisplay:10.37,2013-05-23 13:32:00,
2013-05-23 09:37:00,66.6,61.6,29.75,West,264,9.4,19.6,84,0.00,BKN,OVC,0.39,366.0,WeatherDisplay:10.37,2013-05-23 13:37:00,
2013-05-23 09:42:00,66.7,61.4,29.75,WSW,254,8.5,16.1,83,0.00,BKN,OVC,0.39,269.0,WeatherDisplay:10.37,2013-05-23 13:42:00,
2013-05-23 09:47:00,66.7,61.4,29.75,WSW,241,7.2,13.8,83,0.00,BKN,OVC,0.39,229.0,WeatherDisplay:10.37,2013-05-23 13:47:00,
2013-05-23 09:52:00,66.7,61.4,29.75,WSW,257,5.3,15.0,83,0.00,BKN,OVC,0.39,515.0,WeatherDisplay:10.37,2013-05-23 13:52:00,
2013-05-23 09:57:00,66.9,61.6,29.75,WSW,252,8.0,12.0,83,0.00,BKN,OVC,0.39,213.0,WeatherDisplay:10.37,2013-05-23 13:57:00,
2013-05-23 10:02:00,67.0,61.7,29.74,West,259,6.1,16.1,83,0.00,BKN,OVC,0.39,248.0,WeatherDisplay:10.37,2013-05-23 14:02:00,
2013-05-23 10:07:00,67.4,62.4,29.75,WSW,254,7.6,11.0,84,0.00,BKN,OVC,0.39,747.0,WeatherDisplay:10.37,2013-05-23 14:07:00,
2013-05-23 10:12:00,67.8,61.8,29.75,WSW,246,7.1,11.5,81,0.00,BKN,OVC,0.39,633.0,WeatherDisplay:10.37,2013-05-23 14:12:00,
2013-05-23 10:17:00,68.3,62.2,29.75,WSW,253,6.3,10.4,81,0.00,BKN,OVC,0.39,657.0,WeatherDisplay:10.37,2013-05-23 14:17:00,
2013-05-23 10:22:00,69.2,62.4,29.75,West,276,4.7,14.0,79,0.00,BKN,OVC,0.39,830.0,WeatherDisplay:10.37,2013-05-23 14:22:00,
2013-05-23 10:27:00,69.7,61.4,29.75,WSW,253,9.9,15.0,75,0.00,BKN,OVC,0.39,840.0,WeatherDisplay:10.37,2013-05-23 14:27:00,
2013-05-23 10:32:00,70.2,61.5,29.75,SW,233,8.8,16.1,74,0.00,BKN,OVC,0.39,853.0,WeatherDisplay:10.37,2013-05-23 14:32:00,
2013-05-23 10:37:00,70.6,61.9,29.75,WSW,245,7.5,13.8,74,0.00,BKN,OVC,0.39,940.0,WeatherDisplay:10.37,2013-05-23 14:37:00,
2013-05-23 10:42:00,70.8,61.7,29.75,West,269,7.8,16.1,73,0.00,BKN,OVC,0.39,703.0,WeatherDisplay:10.37,2013-05-23 14:42:00,
2013-05-23 10:47:00,70.8,61.7,29.75,WSW,255,6.2,12.7,73,0.00,BKN,OVC,0.39,385.0,WeatherDisplay:10.37,2013-05-23 14:47:00,
2013-05-23 10:52:00,70.6,60.7,29.75,WSW,257,6.9,18.4,71,0.00,BKN,OVC,0.39,457.0,WeatherDisplay:10.37,2013-05-23 14:52:00,
2013-05-23 10:57:00,70.3,60.8,29.75,SW,227,7.3,20.0,72,0.00,BKN,OVC,0.39,336.0,WeatherDisplay:10.37,2013-05-23 14:57:00,
2013-05-23 11:02:00,70.0,60.9,29.75,WSW,256,10.0,15.0,73,0.00,BKN,OVC,0.39,316.0,WeatherDisplay:10.37,2013-05-23 15:02:00,
2013-05-23 11:07:00,69.6,60.9,29.75,WSW,257,8.5,13.8,74,0.00,BKN,OVC,0.39,445.0,WeatherDisplay:10.37,2013-05-23 15:07:00,
2013-05-23 11:12:00,69.5,61.6,29.75,West,267,6.3,16.1,76,0.00,BKN,OVC,0.39,480.0,WeatherDisplay:10.37,2013-05-23 15:12:00,
2013-05-23 11:17:00,69.5,61.6,29.75,WSW,250,8.5,15.0,76,0.00,BKN,OVC,0.39,617.0,WeatherDisplay:10.37,2013-05-23 15:17:00,
2013-05-23 11:22:00,69.6,61.3,29.75,WSW,249,12.2,18.4,75,0.00,BKN,OVC,0.39,373.0,WeatherDisplay:10.37,2013-05-23 15:22:00,
2013-05-23 11:27:00,69.4,61.5,29.75,West,266,7.7,13.8,76,0.00,BKN,OVC,0.39,304.0,WeatherDisplay:10.37,2013-05-23 15:27:00,
2013-05-23 11:32:00,69.5,62.0,29.75,West,274,2.6,9.2,77,0.00,BKN,OVC,0.39,376.0,WeatherDisplay:10.37,2013-05-23 15:32:00,
2013-05-23 11:37:00,69.5,62.3,29.75,WSW,242,8.7,15.0,78,0.00,BKN,OVC,0.39,369.0,WeatherDisplay:10.37,2013-05-23 15:37:00,
2013-05-23 11:42:00,69.2,62.0,29.75,WSW,251,5.7,18.4,78,0.00,BKN,OVC,0.39,394.0,WeatherDisplay:10.37,2013-05-23 15:42:00,
2013-05-23 11:47:00,69.3,62.5,29.75,West,263,6.8,12.7,79,0.00,BKN,OVC,0.39,529.0,WeatherDisplay:10.37,2013-05-23 15:47:00,
2013-05-23 11:52:00,69.5,62.3,29.75,SW,227,10.1,19.6,78,0.00,BKN,OVC,0.39,454.0,WeatherDisplay:10.37,2013-05-23 15:52:00,
2013-05-23 11:57:00,69.5,61.6,29.75,WSW,246,7.9,17.3,76,0.00,BKN,OVC,0.39,362.0,WeatherDisplay:10.37,2013-05-23 15:57:00,
2013-05-23 12:02:00,69.4,61.5,29.75,West,271,8.0,15.0,76,0.00,BKN,OVC,0.39,1000.0,WeatherDisplay:10.37,2013-05-23 16:02:00,
2013-05-23 12:07:00,69.5,62.0,29.75,West,261,8.9,18.4,77,0.00,BKN,OVC,0.39,921.0,WeatherDisplay:10.37,2013-05-23 16:07:00,
2013-05-23 12:12:00,69.9,62.4,29.75,West,265,4.6,10.4,77,0.00,BKN,OVC,0.39,900.0,WeatherDisplay:10.37,2013-05-23 16:12:00,
2013-05-23 12:17:00,70.4,61.3,29.75,SW,235,13.4,20.0,73,0.00,BKN,OVC,0.39,976.0,WeatherDisplay:10.37,2013-05-23 16:17:00,
2013-05-23 12:22:00,70.3,61.6,29.75,West,270,6.8,13.8,74,0.00,BKN,OVC,0.39,341.0,WeatherDisplay:10.37,2013-05-23 16:22:00,
2013-05-23 12:27:00,70.3,62.4,29.75,NW,306,5.1,11.5,76,0.00,BKN,OVC,0.39,341.0,WeatherDisplay:10.37,2013-05-23 16:27:00,
2013-05-23 12:32:00,70.4,61.3,29.75,WNW,287,12.6,20.0,73,0.00,BKN,OVC,0.39,905.0,WeatherDisplay:10.37,2013-05-23 16:32:00,
2013-05-23 12:37:00,70.6,61.5,29.75,West,281,7.3,15.0,73,0.00,BKN,OVC,0.39,914.0,WeatherDisplay:10.37,2013-05-23 16:37:00,
2013-05-23 12:42:00,71.1,62.0,29.75,WSW,251,7.9,15.0,73,0.00,BKN,OVC,0.39,958.0,WeatherDisplay:10.37,2013-05-23 16:42:00,
2013-05-23 12:47:00,71.2,62.1,29.75,West,270,7.2,19.6,73,0.00,BKN,OVC,0.39,958.0,WeatherDisplay:10.37,2013-05-23 16:47:00,
2013-05-23 12:52:00,71.3,61.8,29.74,WSW,252,11.2,17.0,72,0.00,BKN,OVC,0.39,1123.0,WeatherDisplay:10.37,2013-05-23 16:52:00,
2013-05-23 12:57:00,71.2,62.1,29.74,WSW,242,5.8,13.0,73,0.00,BKN,OVC,0.39,345.0,WeatherDisplay:10.37,2013-05-23 16:57:00,
2013-05-23 13:02:00,70.9,61.4,29.74,West,260,7.7,15.0,72,0.00,BKN,OVC,0.39,436.0,WeatherDisplay:10.37,2013-05-23 17:02:00,
2013-05-23 13:07:00,70.4,61.3,29.74,WSW,248,6.2,17.3,73,0.00,BKN,OVC,0.39,517.0,WeatherDisplay:10.37,2013-05-23 17:07:00,
2013-05-23 13:12:00,70.2,61.1,29.74,WSW,256,10.0,14.0,73,0.00,BKN,OVC,0.39,439.0,WeatherDisplay:10.37,2013-05-23 17:12:00,
2013-05-23 13:17:00,70.1,61.0,29.74,West,267,3.6,11.5,73,0.00,BKN,OVC,0.39,438.0,WeatherDisplay:10.37,2013-05-23 17:17:00,
2013-05-23 13:22:00,69.9,60.8,29.75,NW,319,8.0,16.1,73,0.00,BKN,OVC,0.39,378.0,WeatherDisplay:10.37,2013-05-23 17:22:00,
2013-05-23 13:27:00,69.4,60.4,29.74,WNW,288,8.6,16.1,73,0.00,BKN,OVC,0.39,427.0,WeatherDisplay:10.37,2013-05-23 17:27:00,
2013-05-23 13:32:00,69.1,60.5,29.74,WSW,250,6.1,16.1,74,0.00,BKN,OVC,0.39,640.0,WeatherDisplay:10.37,2013-05-23 17:32:00,
2013-05-23 13:37:00,69.5,61.6,29.74,West,263,6.2,16.1,76,0.00,BKN,OVC,0.39,550.0,WeatherDisplay:10.37,2013-05-23 17:37:00,
2013-05-23 13:42:00,69.6,60.9,29.74,West,270,9.0,20.7,74,0.00,BKN,OVC,0.39,700.0,WeatherDisplay:10.37,2013-05-23 17:42:00,
2013-05-23 13:47:00,69.5,61.2,29.74,WSW,242,8.1,17.3,75,0.00,BKN,OVC,0.39,524.0,WeatherDisplay:10.37,2013-05-23 17:47:00,
2013-05-23 13:52:00,69.2,60.2,29.74,West,269,10.0,14.0,73,0.00,BKN,OVC,0.39,434.0,WeatherDisplay:10.37,2013-05-23 17:52:00,
2013-05-23 13:57:00,68.8,60.2,29.74,West,273,5.9,19.6,74,0.00,BKN,OVC,0.39,418.0,WeatherDisplay:10.37,2013-05-23 17:57:00,
2013-05-23 14:02:00,68.3,60.1,29.74,West,275,9.2,19.6,75,0.00,BKN,OVC,0.39,366.0,WeatherDisplay:10.37,2013-05-23 18:02:00,
2013-05-23 14:07:00,67.9,60.1,29.74,West,277,5.1,16.0,76,0.00,BKN,OVC,0.39,385.0,WeatherDisplay:10.37,2013-05-23 18:07:00,
2013-05-23 14:12:00,67.7,59.9,29.74,West,277,9.4,18.4,76,0.00,BKN,OVC,0.39,422.0,WeatherDisplay:10.37,2013-05-23 18:12:00,
2013-05-23 14:17:00,67.3,59.5,29.74,WSW,254,5.6,16.1,76,0.00,BKN,OVC,0.39,269.0,WeatherDisplay:10.37,2013-05-23 18:17:00,
2013-05-23 14:22:00,66.9,59.5,29.74,WNW,284,6.0,13.8,77,0.00,BKN,OVC,0.39,220.0,WeatherDisplay:10.37,2013-05-23 18:22:00,
2013-05-23 14:27:00,66.5,59.1,29.74,WSW,256,6.3,12.7,77,0.00,BKN,OVC,0.39,211.0,WeatherDisplay:10.37,2013-05-23 18:27:00,
2013-05-23 14:32:00,66.0,58.9,29.75,WSW,254,7.7,13.8,78,0.00,BKN,OVC,0.39,244.0,WeatherDisplay:10.37,2013-05-23 18:32:00,
2013-05-23 14:37:00,65.8,59.1,29.75,SW,228,8.0,14.0,79,0.00,BKN,OVC,0.39,209.0,WeatherDisplay:10.37,2013-05-23 18:37:00,
2013-05-23 14:42:00,65.6,58.9,29.75,WSW,253,4.7,11.5,79,0.00,BKN,OVC,0.39,178.0,WeatherDisplay:10.37,2013-05-23 18:42:00,
2013-05-23 14:47:00,65.4,59.1,29.75,West,265,2.3,10.4,80,0.00,BKN,OVC,0.39,251.0,WeatherDisplay:10.37,2013-05-23 18:47:00,
2013-05-23 14:52:00,65.3,59.0,29.75,West,267,8.2,15.0,80,0.00,BKN,OVC,0.39,461.0,WeatherDisplay:10.37,2013-05-23 18:52:00,
2013-05-23 14:57:00,65.4,59.4,29.75,WSW,247,6.5,11.5,81,0.00,BKN,OVC,0.39,441.0,WeatherDisplay:10.37,2013-05-23 18:57:00,
2013-05-23 15:02:00,65.7,59.7,29.74,WSW,247,5.3,12.0,81,0.00,BKN,OVC,0.39,408.0,WeatherDisplay:10.37,2013-05-23 19:02:00,
2013-05-23 15:07:00,66.3,60.3,29.74,WSW,253,5.5,11.5,81,0.00,BKN,OVC,0.39,905.0,WeatherDisplay:10.37,2013-05-23 19:07:00,
2013-05-23 15:12:00,67.1,60.7,29.74,West,262,9.2,13.8,80,0.00,BKN,OVC,0.39,969.0,WeatherDisplay:10.37,2013-05-23 19:12:00,
2013-05-23 15:17:00,67.7,60.6,29.74,West,271,9.0,15.0,78,0.00,BKN,OVC,0.39,545.0,WeatherDisplay:10.37,2013-05-23 19:17:00,
2013-05-23 15:22:00,68.3,61.2,29.74,WSW,249,5.1,11.5,78,0.00,BKN,OVC,0.39,837.0,WeatherDisplay:10.37,2013-05-23 19:22:00,
2013-05-23 15:27:00,68.7,60.8,29.74,West,261,7.2,19.6,76,0.00,BKN,OVC,0.39,891.0,WeatherDisplay:10.37,2013-05-23 19:27:00,
2013-05-23 15:32:00,68.9,61.0,29.73,WSW,257,4.7,11.5,76,0.00,BKN,OVC,0.39,821.0,WeatherDisplay:10.37,2013-05-23 19:32:00,
2013-05-23 15:37:00,69.2,61.3,29.73,WSW,252,4.5,9.2,76,0.00,BKN,OVC,0.39,807.0,WeatherDisplay:10.37,2013-05-23 19:37:00,
2013-05-23 15:42:00,69.7,62.2,29.73,WSW,253,4.0,9.0,77,0.00,BKN,OVC,0.39,844.0,WeatherDisplay:10.37,2013-05-23 19:42:00,
2013-05-23 15:47:00,70.1,61.4,29.73,WNW,297,10.7,18.4,74,0.00,BKN,OVC,0.39,803.0,WeatherDisplay:10.37,2013-05-23 19:47:00,
2013-05-23 15:52:00,69.9,60.8,29.73,West,259,8.5,17.3,73,0.00,BKN,OVC,0.39,773.0,WeatherDisplay:10.37,2013-05-23 19:52:00,
2013-05-23 15:57:00,69.8,61.1,29.73,WNW,285,8.9,15.0,74,0.00,BKN,OVC,0.39,826.0,WeatherDisplay:10.37,2013-05-23 19:57:00,
2013-05-23 16:02:00,69.6,60.6,29.73,West,259,10.9,15.0,73,0.00,BKN,OVC,0.39,751.0,WeatherDisplay:10.37,2013-05-23 20:02:00,
2013-05-23 16:07:00,69.4,60.8,29.73,West,277,3.6,12.7,74,0.00,BKN,OVC,0.39,759.0,WeatherDisplay:10.37,2013-05-23 20:07:00,
2013-05-23 16:12:00,69.5,60.5,29.73,West,259,8.4,13.8,73,0.00,BKN,OVC,0.39,643.0,WeatherDisplay:10.37,2013-05-23 20:12:00,
2013-05-23 16:17:00,69.3,61.0,29.73,WSW,251,3.8,12.7,75,0.00,BKN,OVC,0.39,687.0,WeatherDisplay:10.37,2013-05-23 20:17:00,
2013-05-23 16:22:00,68.9,60.3,29.73,WSW,254,4.5,12.7,74,0.00,BKN,OVC,0.39,276.0,WeatherDisplay:10.37,2013-05-23 20:22:00,
2013-05-23 16:27:00,68.6,60.4,29.73,WNW,285,3.1,9.2,75,0.00,BKN,OVC,0.39,239.0,WeatherDisplay:10.37,2013-05-23 20:27:00,
2013-05-23 16:32:00,68.2,60.0,29.73,WSW,257,5.5,16.0,75,0.00,BKN,OVC,0.39,232.0,WeatherDisplay:10.37,2013-05-23 20:32:00,
2013-05-23 16:37:00,67.6,59.8,29.73,WSW,246,6.4,16.1,76,0.00,BKN,OVC,0.39,221.0,WeatherDisplay:10.37,2013-05-23 20:37:00,
2013-05-23 16:42:00,67.2,59.7,29.73,WSW,256,8.1,13.0,77,0.00,BKN,OVC,0.39,243.0,WeatherDisplay:10.37,2013-05-23 20:42:00,
2013-05-23 16:47:00,66.9,59.8,29.73,West,260,3.7,11.5,78,0.00,BKN,OVC,0.39,244.0,WeatherDisplay:10.37,2013-05-23 20:47:00,
2013-05-23 16:52:00,66.6,59.5,29.74,West,261,8.2,15.0,78,0.00,BKN,OVC,0.39,229.0,WeatherDisplay:10.37,2013-05-23 20:52:00,
2013-05-23 16:57:00,66.3,59.6,29.73,SW,236,5.3,10.0,79,0.00,BKN,OVC,0.39,207.0,WeatherDisplay:10.37,2013-05-23 20:57:00,
2013-05-23 17:02:00,66.2,59.8,29.73,WSW,244,4.6,8.1,80,0.00,BKN,OVC,0.39,204.0,WeatherDisplay:10.37,2013-05-23 21:02:00,
2013-05-23 17:07:00,66.0,59.7,29.73,WSW,247,2.4,8.1,80,0.00,BKN,OVC,0.39,172.0,WeatherDisplay:10.37,2013-05-23 21:07:00,
2013-05-23 17:12:00,65.8,59.5,29.73,WSW,251,1.5,11.5,80,0.00,BKN,OVC,0.39,153.0,WeatherDisplay:10.37,2013-05-23 21:12:00,
2013-05-23 17:17:00,65.6,59.6,29.74,WSW,250,1.1,8.1,81,0.00,BKN,OVC,0.39,158.0,WeatherDisplay:10.37,2013-05-23 21:17:00,
2013-05-23 17:22:00,65.6,60.0,29.74,WSW,250,2.7,4.0,82,0.00,-RA,OVC,0.39,130.0,WeatherDisplay:10.37,2013-05-23 21:22:00,
2013-05-23 17:27:00,65.5,59.9,29.73,WSW,249,2.3,10.4,82,0.00,-RA,OVC,0.39,107.0,WeatherDisplay:10.37,2013-05-23 21:27:00,
2013-05-23 17:32:00,65.3,59.7,29.73,WSW,248,3.3,8.1,82,0.00,-RA,OVC,0.39,104.0,WeatherDisplay:10.37,2013-05-23 21:32:00,
2013-05-23 17:37:00,65.2,59.2,29.73,WSW,252,2.0,8.1,81,0.00,-RA,OVC,0.39,97.0,WeatherDisplay:10.37,2013-05-23 21:37:00,
2013-05-23 17:42:00,65.0,59.0,29.74,WSW,250,1.6,8.1,81,0.00,-RA,OVC,0.39,127.0,WeatherDisplay:10.37,2013-05-23 21:42:00,
2013-05-23 17:47:00,64.9,59.3,29.74,WSW,250,2.0,5.0,82,0.00,-RA,OVC,0.39,139.0,WeatherDisplay:10.37,2013-05-23 21:47:00,
2013-05-23 17:52:00,64.9,59.6,29.74,WSW,250,0.5,3.5,83,0.00,-RA,OVC,0.39,67.0,WeatherDisplay:10.37,2013-05-23 21:52:00,
2013-05-23 17:57:00,64.9,59.6,29.74,West,266,4.5,9.2,83,0.00,-RA,OVC,0.39,18.0,WeatherDisplay:10.37,2013-05-23 21:57:00,
2013-05-23 18:02:00,64.6,59.3,29.74,NW,307,4.3,8.1,83,0.00,-RA,OVC,0.39,12.0,WeatherDisplay:10.37,2013-05-23 22:02:00,
2013-05-23 18:07:00,63.8,58.2,29.75,WNW,286,4.2,11.5,82,0.00,-RA,OVC,0.39,12.0,WeatherDisplay:10.37,2013-05-23 22:07:00,
2013-05-23 18:12:00,63.0,57.4,29.75,NNW,345,8.9,15.0,82,0.00,-RA,OVC,0.39,5.0,WeatherDisplay:10.37,2013-05-23 22:12:00,
2013-05-23 18:17:00,61.7,55.5,29.75,NNW,335,7.2,12.7,80,0.00,-RA,OVC,0.39,14.0,WeatherDisplay:10.37,2013-05-23 22:17:00,
2013-05-23 18:22:00,60.6,54.4,29.76,NNW,341,3.9,10.4,80,0.00,-RA,OVC,0.39,30.0,WeatherDisplay:10.37,2013-05-23 22:22:00,
2013-05-23 18:27:00,60.0,54.2,29.76,NNW,346,6.9,10.4,81,0.00,-RA,OVC,0.39,32.0,WeatherDisplay:10.37,2013-05-23 22:27:00,
2013-05-23 18:32:00,59.6,53.8,29.76,NNW,344,6.5,12.0,81,0.00,-RA,OVC,0.39,44.0,WeatherDisplay:10.37,2013-05-23 22:32:00,
2013-05-23 18:37:00,59.2,53.4,29.77,North,5,8.0,11.5,81,0.00,-RA,OVC,0.39,26.0,WeatherDisplay:10.37,2013-05-23 22:37:00,
2013-05-23 18:42:00,58.9,53.1,29.77,NNE,12,8.4,13.0,81,0.00,-RA,OVC,0.39,25.0,WeatherDisplay:10.37,2013-05-23 22:42:00,
2013-05-23 18:47:00,58.5,52.4,29.78,NNW,340,5.1,11.5,80,0.00,-RA,OVC,0.39,25.0,WeatherDisplay:10.37,2013-05-23 22:47:00,
2013-05-23 18:52:00,57.9,51.1,29.78,NNW,348,8.6,14.0,78,0.00,-RA,OVC,0.39,23.0,WeatherDisplay:10.37,2013-05-23 22:52:00,
2013-05-23 18:57:00,57.3,50.1,29.79,NNW,346,8.8,12.7,77,0.00,-RA,OVC,0.39,18.0,WeatherDisplay:10.37,2013-05-23 22:57:00,
2013-05-23 19:02:00,56.5,49.7,29.79,NNW,342,7.2,14.0,78,0.00,-RA,OVC,0.40,12.0,WeatherDisplay:10.37,2013-05-23 23:02:00,
2013-05-23 19:07:00,55.9,49.8,29.79,NNW,334,6.9,11.5,80,0.01,-RA,OVC,0.40,21.0,WeatherDisplay:10.37,2013-05-23 23:07:00,
2013-05-23 19:12:00,55.1,49.4,29.79,North,355,7.0,12.0,81,0.03,-RA,OVC,0.42,35.0,WeatherDisplay:10.37,2013-05-23 23:12:00,
2013-05-23 19:17:00,54.3,49.2,29.79,NNW,333,6.6,12.7,83,0.03,-RA,OVC,0.42,33.0,WeatherDisplay:10.37,2013-05-23 23:17:00,
2013-05-23 19:22:00,53.5,48.8,29.79,North,355,5.1,13.8,84,0.03,-RA,OVC,0.42,18.0,WeatherDisplay:10.37,2013-05-23 23:22:00,
2013-05-23 19:27:00,53.1,48.7,29.79,NNW,345,7.6,11.5,85,0.03,-RA,OVC,0.42,11.0,WeatherDisplay:10.37,2013-05-23 23:27:00,
2013-05-23 19:32:00,52.8,48.7,29.79,NNW,344,5.8,10.4,86,0.03,-RA,OVC,0.42,14.0,WeatherDisplay:10.37,2013-05-23 23:32:00,
2013-05-23 19:37:00,52.5,48.7,29.80,NNW,347,4.7,10.4,87,0.03,-RA,OVC,0.42,11.0,WeatherDisplay:10.37,2013-05-23 23:37:00,
2013-05-23 19:42:00,52.3,48.5,29.81,North,355,11.2,17.0,87,0.03,-RA,OVC,0.42,7.0,WeatherDisplay:10.37,2013-05-23 23:42:00,
2013-05-23 19:47:00,51.9,48.2,29.81,NW,319,6.4,15.0,87,0.03,-RA,OVC,0.42,0.0,WeatherDisplay:10.37,2013-05-23 23:47:00,
2013-05-23 19:52:00,51.8,48.1,29.81,NNW,331,3.7,9.2,87,0.03,-RA,OVC,0.42,0.0,WeatherDisplay:10.37,2013-05-23 23:52:00,
2013-05-23 19:57:00,51.6,47.9,29.82,NNW,344,8.0,16.1,87,0.03,-RA,OVC,0.42,0.0,WeatherDisplay:10.37,2013-05-23 23:57:00,
2013-05-23 20:02:00,51.4,47.7,29.82,NNW,348,3.8,9.0,87,0.03,-RA,OVC,0.42,0.0,WeatherDisplay:10.37,2013-05-24 00:02:00,
2013-05-23 20:07:00,51.2,47.8,29.82,NNW,347,4.3,11.5,88,0.02,-RA,OVC,0.42,0.0,WeatherDisplay:10.37,2013-05-24 00:07:00,
2013-05-23 20:12:00,51.1,47.7,29.82,NNW,347,4.3,8.1,88,0.00,-RA,OVC,0.42,0.0,WeatherDisplay:10.37,2013-05-24 00:12:00,
2013-05-23 20:17:00,51.0,47.3,29.82,North,11,9.2,13.0,87,0.00,-RA,OVC,0.42,5.0,WeatherDisplay:10.37,2013-05-24 00:17:00,
2013-05-23 20:22:00,50.8,47.1,29.83,NNW,342,5.4,13.8,87,0.00,-RA,OVC,0.42,0.0,WeatherDisplay:10.37,2013-05-24 00:22:00,
2013-05-23 20:27:00,50.6,46.9,29.83,NNW,340,6.6,11.0,87,0.00,-RA,OVC,0.42,0.0,WeatherDisplay:10.37,2013-05-24 00:27:00,
2013-05-23 20:32:00,50.5,47.1,29.83,NNW,342,1.5,8.1,88,0.00,-RA,OVC,0.42,0.0,WeatherDisplay:10.37,2013-05-24 00:32:00,
2013-05-23 20:37:00,50.5,47.1,29.83,NNW,333,5.1,11.5,88,0.00,-RA,OVC,0.42,0.0,WeatherDisplay:10.37,2013-05-24 00:37:00,
2013-05-23 20:42:00,50.4,47.0,29.84,NNW,330,2.5,11.5,88,0.00,-RA,OVC,0.42,0.0,WeatherDisplay:10.37,2013-05-24 00:42:00,
2013-05-23 20:47:00,50.3,46.9,29.84,NNW,348,3.0,9.2,88,0.00,-RA,OVC,0.42,0.0,WeatherDisplay:10.37,2013-05-24 00:47:00,
2013-05-23 20:52:00,50.1,46.4,29.84,NNW,348,4.0,11.5,87,0.00,-RA,OVC,0.42,0.0,WeatherDisplay:10.37,2013-05-24 00:52:00,
2013-05-23 20:57:00,50.0,46.6,29.84,North,355,6.0,11.5,88,0.01,-RA,OVC,0.43,0.0,WeatherDisplay:10.37,2013-05-24 00:57:00,
2013-05-23 21:02:00,49.8,46.4,29.84,NNW,348,4.4,9.2,88,0.01,-RA,OVC,0.43,0.0,WeatherDisplay:10.37,2013-05-24 01:02:00,
2013-05-23 21:07:00,49.7,46.3,29.84,North,350,5.8,9.0,88,0.01,-RA,OVC,0.43,0.0,WeatherDisplay:10.37,2013-05-24 01:07:00,
2013-05-23 21:12:00,49.5,46.1,29.85,North,355,4.0,8.1,88,0.01,-RA,OVC,0.43,0.0,WeatherDisplay:10.37,2013-05-24 01:12:00,
2013-05-23 21:17:00,49.4,46.0,29.84,North,355,5.4,11.5,88,0.01,-RA,OVC,0.43,0.0,WeatherDisplay:10.37,2013-05-24 01:17:00,
2013-05-23 21:22:00,49.2,45.8,29.85,NNW,342,3.5,5.8,88,0.01,-RA,OVC,0.43,0.0,WeatherDisplay:10.37,2013-05-24 01:22:00,
2013-05-23 21:27:00,49.2,45.8,29.85,North,349,3.0,5.8,88,0.01,-RA,OVC,0.43,0.0,WeatherDisplay:10.37,2013-05-24 01:27:00,
2013-05-23 21:32:00,49.1,45.7,29.85,NW,326,5.1,11.5,88,0.01,-RA,OVC,0.43,0.0,WeatherDisplay:10.37,2013-05-24 01:32:00,
2013-05-23 21:37:00,49.0,45.9,29.86,NNW,345,3.1,11.5,89,0.01,-RA,OVC,0.43,0.0,WeatherDisplay:10.37,2013-05-24 01:37:00,
2013-05-23 21:42:00,48.9,45.8,29.86,NW,325,4.0,9.2,89,0.01,-RA,OVC,0.43,0.0,WeatherDisplay:10.37,2013-05-24 01:42:00,
2013-05-23 21:47:00,48.7,45.6,29.86,NNW,341,6.1,10.4,89,0.02,-RA,OVC,0.44,0.0,WeatherDisplay:10.37,2013-05-24 01:47:00,
2013-05-23 21:52:00,48.6,45.5,29.87,NNW,333,4.7,8.1,89,0.02,-RA,OVC,0.44,0.0,WeatherDisplay:10.37,2013-05-24 01:52:00,
2013-05-23 21:57:00,48.5,45.4,29.87,NNW,327,3.5,8.1,89,0.01,-RA,OVC,0.44,0.0,WeatherDisplay:10.37,2013-05-24 01:57:00,
2013-05-23 22:02:00,48.5,45.4,29.87,NNW,329,4.2,8.1,89,0.01,-RA,OVC,0.44,0.0,WeatherDisplay:10.37,2013-05-24 02:02:00,
2013-05-23 22:07:00,48.4,45.3,29.88,NW,326,2.1,5.8,89,0.01,-RA,OVC,0.44,0.0,WeatherDisplay:10.37,2013-05-24 02:07:00,
2013-05-23 22:12:00,48.3,45.2,29.88,NNW,333,3.1,9.2,89,0.01,-RA,OVC,0.44,0.0,WeatherDisplay:10.37,2013-05-24 02:12:00,
2013-05-23 22:17:00,48.2,45.1,29.89,NNW,333,2.9,5.0,89,0.01,-RA,OVC,0.44,0.0,WeatherDisplay:10.37,2013-05-24 02:17:00,
2013-05-23 22:22:00,48.0,44.9,29.88,NNW,331,4.6,9.2,89,0.01,SCT,OVC,0.44,0.0,WeatherDisplay:10.37,2013-05-24 02:22:00,
2013-05-23 22:27:00,47.8,44.7,29.88,NNW,342,5.9,10.4,89,0.01,SCT,OVC,0.44,0.0,WeatherDisplay:10.37,2013-05-24 02:27:00,
2013-05-23 22:32:00,47.6,44.5,29.88,NNW,335,6.5,10.4,89,0.01,SCT,OVC,0.44,0.0,WeatherDisplay:10.37,2013-05-24 02:32:00,
2013-05-23 22:37:00,47.5,44.4,29.89,North,355,7.0,11.5,89,0.02,RA,OVC,0.45,0.0,WeatherDisplay:10.37,2013-05-24 02:37:00,
2013-05-23 22:42:00,47.3,44.5,29.89,NNW,346,3.9,10.4,90,0.02,RA,OVC,0.45,0.0,WeatherDisplay:10.37,2013-05-24 02:42:00,
2013-05-23 22:47:00,47.2,44.1,29.89,North,349,5.9,9.0,89,0.01,OVC,,0.45,0.0,WeatherDisplay:10.37,2013-05-24 02:47:00,
2013-05-23 22:52:00,46.9,43.8,29.89,North,350,5.7,11.5,89,0.01,OVC,,0.45,0.0,WeatherDisplay:10.37,2013-05-24 02:52:00,
2013-05-23 22:57:00,46.8,44.0,29.89,North,9,4.2,9.2,90,0.01,OVC,,0.45,0.0,WeatherDisplay:10.37,2013-05-24 02:57:00,
2013-05-23 23:02:00,46.6,43.8,29.89,North,360,8.9,18.4,90,0.01,OVC,,0.45,0.0,WeatherDisplay:10.37,2013-05-24 03:02:00,
2013-05-23 23:07:00,46.4,43.6,29.89,North,355,5.9,12.7,90,0.01,-RA,OVC,0.45,0.0,WeatherDisplay:10.37,2013-05-24 03:07:00,
2013-05-23 23:12:00,46.3,43.5,29.89,North,5,3.9,9.2,90,0.01,-RA,OVC,0.45,0.0,WeatherDisplay:10.37,2013-05-24 03:12:00,
2013-05-23 23:17:00,46.3,43.5,29.89,North,9,3.9,7.0,90,0.01,-RA,OVC,0.45,0.0,WeatherDisplay:10.37,2013-05-24 03:17:00,
2013-05-23 23:22:00,45.9,43.1,29.90,North,355,7.7,15.0,90,0.01,-RA,OVC,0.45,0.0,WeatherDisplay:10.37,2013-05-24 03:22:00,
2013-05-23 23:27:00,45.5,42.4,29.90,North,355,8.2,16.1,89,0.01,-RA,OVC,0.45,0.0,WeatherDisplay:10.37,2013-05-24 03:27:00,
2013-05-23 23:32:00,45.4,42.6,29.90,North,5,2.6,6.0,90,0.02,-RA,OVC,0.46,0.0,WeatherDisplay:10.37,2013-05-24 03:32:00,
2013-05-23 23:37:00,45.3,42.5,29.91,North,355,5.4,9.2,90,0.01,-RA,OVC,0.46,0.0,WeatherDisplay:10.37,2013-05-24 03:37:00,
2013-05-23 23:42:00,45.2,42.4,29.91,North,350,2.3,5.8,90,0.01,-RA,OVC,0.46,0.0,WeatherDisplay:10.37,2013-05-24 03:42:00,
2013-05-23 23:47:00,45.0,42.2,29.92,NNW,348,4.8,11.5,90,0.01,-RA,OVC,0.46,0.0,WeatherDisplay:10.37,2013-05-24 03:47:00,
2013-05-23 23:52:00,44.8,42.0,29.92,North,5,4.6,12.7,90,0.01,-RA,OVC,0.46,0.0,WeatherDisplay:10.37,2013-05-24 03:52:00,
2013-05-23 23:57:00,44.7,41.9,29.92,North,355,8.0,12.0,90,0.02,-RA,OVC,0.47,0.0,WeatherDisplay:10.37,2013-05-24 03:57:00,